Date String (YYYY-MM-DD hh:mm:ss) UTC,Instrument flags,absolute air pressure of the measurement (hPa),sample flow rate (lpm),inlet stack bypass flow (lpm),air temperature of the measurement (°C),ambient temperature measured by the external sensor (°C),aerosol sample conditioner tube jacket temperature (°C),OPC LED temperature (°C),internal box temperature (°C),relative humidity of the measurement (%),span deviation,mass concentration of particles derived from Lorenz-Mie calculation of OPC scattering (μg/m³),mass concentration of particles derived from Lorenz-Mie calculation of OPC scattering (μg/m³),mass concentration of particles derived from Lorenz-Mie calculation of OPC scattering (μg/m³)
DateTimeUTC,F1_M11,P_M11,Q1_M11,Q2_M11,T1_M11,T2_M11,T3_M11,T4_M11,T5_M11,U1_M11,ZSPAN_M11,X0_M11,X2_M11,X1_M11
2023-10-26 15:00:00,SystemResetWarning,0824.6,5.00,000.00,028.4,027.0,000.0,036.9,030.1,20.6,-003.2,0009.05,0006.63,0006.45
2023-10-26 15:01:00,SystemResetWarning,0824.5,5.00,000.00,028.5,027.1,000.0,036.9,030.0,20.6,-003.4,0008.97,0006.58,0006.40
2023-10-26 15:02:00,SystemResetWarning,0824.5,5.01,000.00,028.5,027.1,000.0,036.9,030.0,20.6,-003.1,0008.88,0006.52,0006.35
2023-10-26 15:03:00,SystemResetWarning,0824.5,5.00,000.00,028.5,027.1,000.0,036.9,030.1,20.6,-002.9,0008.67,0006.42,0006.29
2023-10-26 15:04:00,SystemResetWarning,0824.6,4.99,000.00,028.5,027.1,000.0,036.9,030.1,20.5,-002.7,0008.57,0006.36,0006.23
2023-10-26 15:05:00,SystemResetWarning,0824.6,5.00,000.00,028.5,027.1,000.0,036.9,030.1,20.6,-003.0,0008.56,0006.34,0006.21
2023-10-26 15:06:00,SystemResetWarning,0824.5,5.00,000.00,028.5,027.1,000.0,036.9,030.1,20.6,-003.1,0008.63,0006.37,0006.23
2023-10-26 15:07:00,SystemResetWarning,0824.4,5.00,000.00,028.5,027.1,000.0,036.9,030.1,20.6,-002.9,0008.83,0006.38,0006.24
2023-10-26 15:08:00,SystemResetWarning,0824.4,5.00,000.00,028.5,027.1,000.0,036.9,030.1,20.6,-002.7,0009.50,0006.40,0006.25
2023-10-26 15:09:00,SystemResetWarning,0824.5,5.00,000.00,028.5,027.1,000.0,036.9,030.1,20.6,-002.9,0009.44,0006.39,0006.25
2023-10-26 15:10:00,SystemResetWarning,0824.5,5.00,000.00,028.5,027.1,000.0,036.9,030.1,20.7,-002.9,0009.45,0006.41,0006.26
2023-10-26 15:11:00,SystemResetWarning,0824.4,5.00,000.00,028.5,027.1,000.0,036.9,030.1,20.7,-003.0,0009.46,0006.41,0006.25
2023-10-26 15:12:00,SystemResetWarning,0824.3,5.00,000.00,028.5,027.1,000.0,036.9,030.1,20.7,-003.1,0009.82,0006.42,0006.27
2023-10-26 15:13:00,SystemResetWarning,0824.4,5.00,000.00,028.5,027.1,000.0,036.9,030.1,20.8,-003.1,0009.96,0006.45,0006.28
2023-10-26 15:14:00,SystemResetWarning,0824.4,5.00,000.00,028.5,027.1,000.0,036.9,030.1,20.8,-003.0,0009.99,0006.45,0006.27
2023-10-26 15:15:00,SystemResetWarning,0824.4,5.00,000.00,028.5,027.1,000.0,036.9,030.1,20.8,-003.1,0009.99,0006.45,0006.27
2023-10-26 15:16:00,SystemResetWarning,0824.3,5.00,000.00,028.5,027.1,000.0,036.9,030.1,20.8,-002.9,0009.92,0006.42,0006.25
2023-10-26 15:17:00,SystemResetWarning,0824.3,5.00,000.00,028.5,027.0,000.0,036.9,030.1,20.8,-002.7,0009.84,0006.39,0006.22
2023-10-26 15:18:00,SystemResetWarning,0824.4,5.00,000.00,028.5,027.1,000.0,036.9,030.1,20.8,-002.8,0009.79,0006.37,0006.20
2023-10-26 15:19:00,SystemResetWarning,0824.4,5.00,000.00,028.5,027.1,000.0,036.9,030.1,20.9,-003.0,0009.01,0006.34,0006.16
2023-10-26 15:20:00,SystemResetWarning,0824.4,4.99,000.00,028.5,027.1,000.0,036.9,030.1,20.9,-003.1,0008.98,0006.31,0006.12
2023-10-26 15:21:00,SystemResetWarning,0824.5,5.00,000.00,028.5,027.1,000.0,036.9,030.1,20.9,-003.4,0010.03,0006.31,0006.12
2023-10-26 15:22:00,SystemResetWarning,0824.5,5.00,000.00,028.5,027.1,000.0,036.9,030.2,20.8,-003.2,0010.88,0006.34,0006.14
2023-10-26 15:23:00,SystemResetWarning,0824.5,5.00,000.00,028.5,027.2,000.0,036.9,030.1,20.7,-002.9,0010.86,0006.37,0006.17
2023-10-26 15:24:00,SystemResetWarning,0824.4,5.00,000.00,028.5,027.2,000.0,036.9,030.1,20.7,-003.2,0010.96,0006.39,0006.16
2023-10-26 15:25:00,SystemResetWarning,0824.5,5.00,000.00,028.5,027.1,000.0,036.9,030.1,20.7,-003.3,0010.90,0006.37,0006.15
2023-10-26 15:26:00,SystemResetWarning,0824.5,5.00,000.00,028.5,027.1,000.0,036.9,030.1,20.7,-003.3,0011.01,0006.41,0006.18
2023-10-26 15:27:00,SystemResetWarning,0824.5,5.00,000.00,028.5,027.1,000.0,036.9,030.1,20.7,-002.9,0011.98,0006.47,0006.22
2023-10-26 15:28:00,SystemResetWarning,0824.5,5.00,000.00,028.5,027.1,000.0,036.9,030.1,20.8,-002.9,0012.38,0006.49,0006.24
2023-10-26 15:29:00,SystemResetWarning,0824.5,5.01,000.00,028.5,027.1,000.0,037.0,030.1,20.8,-003.0,0012.43,0006.50,0006.27
2023-10-26 15:30:00,SystemResetWarning,0824.4,5.01,000.00,028.5,027.1,000.0,037.0,030.1,20.8,-003.0,0012.48,0006.55,0006.32
2023-10-26 15:31:00,SystemResetWarning,0824.4,5.00,000.00,028.5,027.1,000.0,036.9,030.1,20.8,-003.0,0012.58,0006.62,0006.39
2023-10-26 15:32:00,SystemResetWarning,0824.4,4.99,000.00,028.5,027.1,000.0,036.9,030.1,20.8,-003.0,0011.67,0006.66,0006.45
2023-10-26 15:33:00,SystemResetWarning,0824.4,4.99,000.00,028.5,027.1,000.0,037.0,030.1,20.8,-003.1,0010.82,0006.67,0006.47
2023-10-26 15:34:00,SystemResetWarning,0824.4,4.99,000.00,028.5,027.1,000.0,037.0,030.1,20.8,-003.2,0010.56,0006.68,0006.48
2023-10-26 15:35:00,SystemResetWarning,0824.3,5.00,000.00,028.5,027.1,000.0,037.0,030.1,20.7,-003.1,0011.16,0006.70,0006.53
2023-10-26 15:36:00,SystemResetWarning,0824.3,5.00,000.00,028.5,027.1,000.0,037.0,030.1,20.7,-003.1,0011.42,0006.77,0006.58
2023-10-26 15:37:00,SystemResetWarning,0824.4,5.00,000.00,028.5,027.2,000.0,037.0,030.1,20.8,-003.2,0011.39,0006.79,0006.61
2023-10-26 15:38:00,SystemResetWarning,0824.4,5.00,000.00,028.5,027.2,000.0,037.0,030.1,20.8,-003.4,0010.61,0006.80,0006.63
2023-10-26 15:39:00,SystemResetWarning,0824.4,5.00,000.00,028.5,027.2,000.0,037.0,030.2,20.8,-003.4,0010.21,0006.84,0006.66
2023-10-26 15:40:00,SystemResetWarning,0824.4,5.00,000.00,028.5,027.2,000.0,037.0,030.2,20.8,-003.5,0010.17,0006.87,0006.69
2023-10-26 15:41:00,SystemResetWarning,0824.4,5.00,000.00,028.5,027.2,000.0,037.0,030.2,20.8,-003.5,0010.20,0006.87,0006.71
2023-10-26 15:42:00,SystemResetWarning,0824.4,5.01,000.00,028.5,027.2,000.0,037.0,030.2,20.7,-003.4,0010.23,0006.87,0006.71
2023-10-26 15:43:00,SystemResetWarning,0824.4,4.99,000.00,028.6,027.2,000.0,037.0,030.2,20.7,-003.4,0010.21,0006.85,0006.70
2023-10-26 15:44:00,SystemResetWarning,0824.3,4.99,000.00,028.6,027.2,000.0,037.0,030.2,20.7,-003.4,0010.26,0006.88,0006.72
2023-10-26 15:45:00,SystemResetWarning,0824.3,5.00,000.00,028.6,027.2,000.0,037.0,030.2,20.6,-003.2,0010.34,0006.92,0006.75
2023-10-26 15:46:00,SystemResetWarning,0824.4,5.01,000.00,028.6,027.2,000.0,037.0,030.2,20.6,-003.1,0009.82,0006.97,0006.78
2023-10-26 15:47:00,SystemResetWarning,0824.4,5.01,000.00,028.6,027.2,000.0,037.0,030.2,20.6,-003.3,0009.46,0006.97,0006.78
2023-10-26 15:48:00,SystemResetWarning,0824.4,5.00,000.00,028.6,027.2,000.0,037.0,030.2,20.5,-003.3,0009.52,0006.99,0006.80
2023-10-26 15:49:00,SystemResetWarning,0824.4,4.99,000.00,028.6,027.2,000.0,037.0,030.2,20.5,-003.1,0009.59,0007.03,0006.84
2023-10-26 15:50:00,SystemResetWarning,0824.4,4.99,000.00,028.6,027.2,000.0,037.0,030.2,20.5,-003.0,0009.72,0007.12,0006.92
2023-10-26 15:51:00,SystemResetWarning,0824.4,5.01,000.00,028.6,027.2,000.0,037.0,030.2,20.5,-002.7,0009.84,0007.20,0006.97
2023-10-26 15:52:00,SystemResetWarning,0824.3,5.01,000.00,028.6,027.2,000.0,037.0,030.2,20.5,-002.6,0010.02,0007.31,0007.06
2023-10-26 15:53:00,SystemResetWarning,0824.3,5.00,000.00,028.6,027.2,000.0,037.0,030.2,20.5,-002.4,0010.14,0007.38,0007.11
2023-10-26 15:54:00,SystemResetWarning,0824.3,4.99,000.00,028.6,027.2,000.0,037.0,030.2,20.6,-002.3,0010.26,0007.46,0007.18
2023-10-26 15:55:00,SystemResetWarning,0824.3,4.99,000.00,028.6,027.2,000.0,037.0,030.2,21.2,-002.3,0010.42,0007.53,0007.26
2023-10-26 15:56:00,SystemResetWarning,0824.3,5.00,000.00,028.6,027.2,000.0,037.0,030.2,21.1,-002.4,0010.51,0007.59,0007.32
2023-10-26 15:57:00,SystemResetWarning,0824.3,5.00,000.00,028.6,027.2,000.0,037.0,030.2,20.9,-002.6,0010.60,0007.66,0007.39
2023-10-26 15:58:00,SystemResetWarning,0824.3,5.00,000.00,028.6,027.2,000.0,037.0,030.3,20.9,-002.5,0010.72,0007.75,0007.49
2023-10-26 15:59:00,SystemResetWarning,0824.4,5.00,000.00,028.6,027.2,000.0,037.0,030.3,20.9,-002.4,0010.95,0007.90,0007.60
